Overview Statistics Trail Chart Weather Telemetry Raw packets
 

This is the latest recevied weather packets stored in our database for station/object KD4PMP. If no packets are shown the sender has not sent any weather packets the latest 10 day(s).

<< 11 12 13 14 15 16 17 >>
Time Temp. Humidity Pressure Rain* Wind** Luminosity Snow
1788443782 30° C 75% 1015.9 hPa 0 mm - - -
1788443175 30° C 78% 1016 hPa 0 mm - - -
1788442576 28.89° C 81% 1016 hPa 0 mm - - -
1788441962 28.33° C 81% 1016 hPa 0 mm - - -
1788441356 27.78° C 83% 1016.1 hPa 0 mm - - -
1788440750 27.22° C 86% 1016.2 hPa 0 mm - - -
1788440143 26.11° C 89% 1016.1 hPa 0 mm - - -
1788439537 25° C 92% 1016.1 hPa 0 mm - - -
1788438931 24.44° C 94% 1016.3 hPa 0 mm - - -
1788438325 23.89° C 94% 1016.2 hPa 0 mm - - -
1788437718 23.33° C 94% 1016.2 hPa 0 mm - - -
1788437112 23.33° C 94% 1016 hPa 0 mm - - -
1788436506 23.33° C 94% 1015.9 hPa 0 mm - - -
1788435899 23.33° C 94% 1015.7 hPa 0 mm - - -
1788435293 23.33° C 93% 1015.7 hPa 0 mm - - -
1788434686 23.33° C 93% 1015.4 hPa 0 mm - - -
1788434080 23.89° C 92% 1015.4 hPa 0 mm - - -
1788433474 23.89° C 92% 1015.4 hPa 0 mm - - -
1788432867 23.89° C 93% 1015.3 hPa 0 mm - - -
1788432261 23.89° C 93% 1015.2 hPa 0 mm - - -
1788431655 23.89° C 93% 1015 hPa 0 mm - - -
1788431048 23.89° C 93% 1015 hPa 0 mm - - -
1788430442 23.89° C 92% 1014.9 hPa 0 mm - - -
1788429836 23.89° C 92% 1015 hPa 0 mm - - -
1788429229 23.89° C 92% 1014.8 hPa 0 mm - - -

* Rain latest hour (hover to see other rain measurements)
** Current wind speed in m/s (hover to see current wind gust speed)